Weather History for Palmer, AK

Change the Weather History Date:

Monday, February 11, 2013

  Actual Average Record
Temperature  
Mean Temperature 25 °F -  
Max Temperature 32 °F 27 °F 52 °F (1980)
Min Temperature 18 °F 9 °F -23 °F (1999)
Degree Days  
Heating Degree Days 40    
Moisture  
Dew Point 23 °F    
Average Humidity 86    
Maximum Humidity 100    
Minimum Humidity 74    
Precipitation  
Precipitation 0.14 in - - ()
Snow  
Snow 0.00 in - - ()
Snow Depth 3.00 in    
Sea Level Pressure  
Sea Level Pressure 29.62 in    
Wind  
Wind Speed 2 mph (WNW)    
Max Wind Speed 15 mph    
Max Gust Speed 20 mph    
Visibility 4 miles    
Events Snow    
Averages and records for this station are not official NWS values.
T = Trace of Precipitation, MM = Missing Value Source: NWS Daily Summary

Daily Weather History Graph

Daily Weather History Graph

Search for Another Location

Airport:

Trip Planner

Search our weather history database for the weather conditions in past years. The results will help you decide how hot, cold, wet, or windy it might be!

Date:

Astronomy

Feb. 11, 2013 Rise Set
Actual Time 8:50 AM AKST 5:31 PM AKST
Civil Twilight 8:03 AM AKST 6:18 PM AKST
Nautical Twilight 7:11 AM AKST 7:10 PM AKST
Astronomical Twilight 6:21 AM AKST 8:01 PM AKST
Moon 8:35 AM AKST (2/11) 8:33 PM AKST (2/11)
Length of Visible Light 10h 15m
Length of Day
8h 41m
Waxing Crescent, 3% of the Moon is Illuminated
Feb 11
Waxing Crescent
Feb 17
First Quarter
Feb 25
Full
Mar 4
Last Quarter
Mar 11
New

Hourly Weather History & Observations

Time (AKST) Temp. Windchill Dew Point Humidity Pressure Visibility Wind Dir Wind Speed Gust Speed Precip Events Conditions
12:07 AM 32.0 °F - 30.2 °F 93% 29.49 in 1.8 mi Calm Calm - 0.00 in Snow Light Snow
12:27 AM 30.2 °F - 30.2 °F 100% 29.49 in 1.5 mi Calm Calm - 0.01 in Snow Light Snow
12:53 AM 30.9 °F 27.5 °F 30.0 °F 96% 29.52 in 1.5 mi ESE 3.5 mph - 0.02 in Snow Light Snow
1:01 AM 30.2 °F - 30.2 °F 100% 29.50 in 1.5 mi Calm Calm - 0.01 in Snow Light Snow
1:10 AM 30.2 °F - 30.2 °F 100% 29.51 in 1.5 mi Calm Calm - 0.01 in Snow Light Snow
1:18 AM 30.2 °F 26.7 °F 30.2 °F 100% 29.51 in 1.2 mi SE 3.5 mph - 0.01 in Snow Light Snow
1:32 AM 30.2 °F - 30.2 °F 100% 29.51 in 1.2 mi Calm Calm - 0.02 in Snow Light Snow
1:53 AM 30.9 °F - 30.0 °F 96% 29.53 in 1.5 mi Calm Calm - 0.03 in Snow Light Snow
2:00 AM 30.2 °F - 30.2 °F 100% 29.52 in 1.5 mi Calm Calm - 0.00 in Snow Light Snow
2:11 AM 30.2 °F - 30.2 °F 100% 29.52 in 1.2 mi Calm Calm - 0.00 in Snow Light Snow
2:53 AM 30.9 °F - 28.9 °F 92% 29.54 in 1.2 mi Calm Calm - 0.02 in Snow Light Snow
3:26 AM 30.2 °F - 28.4 °F 93% 29.53 in 1.0 mi Calm Calm - 0.01 in Snow Light Snow
3:35 AM 30.2 °F - 28.4 °F 93% 29.53 in 0.8 mi Calm Calm - 0.02 in Snow Light Snow
3:53 AM 30.9 °F - 30.0 °F 96% 29.55 in 0.8 mi Calm Calm - 0.04 in Snow Light Snow
4:03 AM 30.2 °F - 28.4 °F 93% 29.54 in 1.0 mi Calm Calm - 0.01 in Snow Light Snow
4:25 AM 30.2 °F 25.4 °F 28.4 °F 93% 29.55 in 1.0 mi West 4.6 mph - 0.02 in Snow Light Snow
4:29 AM 30.2 °F 20.2 °F 28.4 °F 93% 29.55 in 0.8 mi West 12.7 mph 19.6 mph 0.02 in Snow Light Snow
4:33 AM 28.4 °F 19.7 °F 26.6 °F 93% 29.55 in 1.0 mi West 9.2 mph 19.6 mph 0.02 in Snow Light Snow
4:46 AM 28.4 °F 20.4 °F 26.6 °F 93% 29.55 in 2.5 mi West 8.1 mph - 0.02 in Snow Light Snow
4:53 AM 28.9 °F 21.9 °F 27.0 °F 92% 29.57 in 1.5 mi West 6.9 mph - 0.02 in Snow Light Snow
5:14 AM 28.4 °F 19.7 °F 24.8 °F 86% 29.56 in 3.0 mi WSW 9.2 mph 18.4 mph 0.01 in Snow Light Snow
5:53 AM 28.0 °F - 23.0 °F 81% 29.59 in 7.0 mi Calm Calm - 0.01 in   Overcast
6:45 AM 28.4 °F - 23.0 °F 80% 29.59 in 2.5 mi Calm Calm - 0.00 in Snow Light Snow
6:53 AM 27.0 °F - 24.1 °F 89% 29.61 in 2.5 mi Calm Calm - 0.00 in Snow Light Snow
7:11 AM 26.6 °F - 24.8 °F 93% 29.60 in 3.0 mi Calm Calm - 0.00 in Snow Light Snow
7:53 AM 27.0 °F 21.6 °F 21.0 °F 78% 29.63 in 10.0 mi North 4.6 mph - 0.00 in Snow Light Snow
8:01 AM 26.6 °F 22.6 °F 21.2 °F 80% 29.61 in 9.0 mi NNW 3.5 mph - 0.00 in Snow Light Snow
8:53 AM 26.1 °F - 19.9 °F 78% 29.64 in 10.0 mi Calm Calm - 0.00 in   Overcast
9:34 AM 26.6 °F 20.0 °F 19.4 °F 74% 29.64 in 9.0 mi West 5.8 mph - 0.00 in Snow Light Snow
9:53 AM 26.1 °F 17.6 °F 19.9 °F 78% 29.66 in 2.0 mi SW 8.1 mph - 0.00 in Snow Light Snow
10:10 AM 24.8 °F 17.9 °F 19.4 °F 80% 29.65 in 4.0 mi WSW 5.8 mph - 0.00 in Snow Light Snow
10:31 AM 24.8 °F 19.1 °F 17.6 °F 74% 29.66 in 7.0 mi West 4.6 mph - 0.00 in Snow Light Snow
10:53 AM 25.0 °F 17.1 °F 19.0 °F 78% 29.69 in 5.0 mi West 6.9 mph - 0.00 in Snow Light Snow
11:21 AM 24.8 °F 17.9 °F 17.6 °F 74% 29.68 in 1.8 mi WNW 5.8 mph - 0.00 in Snow Light Snow
11:53 AM 24.1 °F - 18.0 °F 77% 29.71 in 1.2 mi Calm Calm - 0.00 in Snow Light Snow
12:00 PM 24.8 °F - 17.6 °F 74% 29.69 in 3.0 mi Calm Calm - 0.00 in Snow Light Snow
12:24 PM 23.0 °F 17.0 °F 19.4 °F 86% 29.70 in 3.0 mi ENE 4.6 mph - 0.00 in Snow Light Snow
12:53 PM 24.1 °F 19.7 °F 19.9 °F 84% 29.72 in 6.0 mi Variable 3.5 mph - 0.00 in Snow Light Snow
1:53 PM 25.0 °F - 18.0 °F 75% 29.73 in 8.0 mi Calm Calm - 0.00 in   Overcast
2:53 PM 24.1 °F 19.7 °F 18.0 °F 77% 29.74 in 4.0 mi ENE 3.5 mph - N/A   Haze
3:53 PM 25.0 °F - 18.0 °F 75% 29.74 in 10.0 mi Calm Calm - N/A   Overcast
4:53 PM 23.0 °F - 17.1 °F 78% 29.75 in 10.0 mi Calm Calm - N/A   Mostly Cloudy
5:53 PM 21.9 °F 17.2 °F 17.1 °F 82% 29.75 in 10.0 mi East 3.5 mph - N/A   Mostly Cloudy
6:53 PM 21.0 °F 16.2 °F 17.1 °F 85% 29.76 in 10.0 mi NNE 3.5 mph - N/A   Overcast
7:53 PM 19.9 °F - 16.0 °F 85% 29.77 in 10.0 mi Calm Calm - N/A   Mostly Cloudy
8:53 PM 18.0 °F 11.1 °F 15.1 °F 88% 29.77 in 10.0 mi North 4.6 mph - N/A   Partly Cloudy
9:53 PM 18.0 °F 7.7 °F 10.9 °F 74% 29.75 in 10.0 mi North 8.1 mph - N/A   Clear
10:53 PM 19.0 °F 5.6 °F 14.0 °F 81% 29.75 in 10.0 mi North 13.8 mph - N/A   Clear
11:53 PM 19.9 °F 6.2 °F 12.9 °F 74% 29.75 in 10.0 mi North 15.0 mph - N/A   Scattered Clouds